Regional Weather Roundup
Issued by NWS

Home | Current Version | Previous Version | Text Only | Print | Product List | Glossary Off
Versions: 1 2 3 4 5 6 7 8 9 10 11 12 13 14 15 16 17 18 19 20 21 22 23 24 25 26 27 28 29 30 31 32 33 34 35 36 37 38 39 40 41 42 43 44 45 46 47 48 49 50

000
ASUS43 KMPX 301810
RWRMN
WEATHER ROUNDUP FOR MINNESOTA
NATIONAL WEATHER SERVICE TWIN CITIES/CHANHASSEN MN
100 PM CDT THU OCT 30 2014


NOTE: "FAIR" INDICATES FEW OR NO CLOUDS BELOW 12,000 FEET WITH NO
SIGNIFICANT WEATHER AND/OR OBSTRUCTIONS TO VISIBILITY. N/A MEANS
CURRENT SKY AND/OR WEATHER CONDITIONS ARE NOT AVAILABLE.

MNZ060>063-068>070-301900-
   Twin Cities Metro

CITY           SKY/WX    TMP DP  RH WIND       PRES   REMARKS
TWIN CITIES    CLOUDY    46  36  68 NW6       30.10S
6HR MIN TEMP:  39; 6HR MAX TEMP:  46;

ST PAUL        CLOUDY    48  38  68 N8        30.11S
CRYSTAL        CLOUDY    47  36  65 N7        30.10R
BLAINE         PTSUNNY   48  37  66 NW9       30.11R
LAKEVILLE      CLOUDY    43  37  81 N3        30.09S
EDEN PRAIRIE   CLOUDY    47  37  68 N6        30.09R
6HR MIN TEMP:  40; 6HR MAX TEMP:  47; 6HR PCP: TRACE;

SOUTH ST PAUL  CLOUDY    46  36  68 N3        30.10S
LAKE ELMO      CLOUDY    48  36  61 N8        30.10S
$$
MNZ001>005-007-008-013>017-022>024-027-028-301900-
   Northwest Minnesota

CITY           SKY/WX    TMP DP  RH WIND       PRES   REMARKS
BEMIDJI        CLOUDY    37  31  79 NW12G18   30.19R
HALLOCK          N/A     36  27  69 N20G28    30.33R
ROSEAU         CLOUDY    36  27  69 N25G31    30.26R
WARROAD        PTSUNNY   36  28  75 NW15G22   30.24R
THIEF RVR FALL CLOUDY    37  27  65 N16       30.27R
CROOKSTON      CLOUDY    37  28  70 N24G30    30.30R
FOSSTON        CLOUDY    36  30  80 NW18      30.24R
DETROIT LAKES  CLOUDY    37  32  81 N10G29    30.22R
MOORHEAD       CLOUDY    39  37  93 N22G28    30.28R
PARK RAPIDS    CLOUDY    38  31  76 N17G24    30.18R
MAHNOMEN       CLOUDY    36  32  84 N14G22    30.24R
$$
MNZ006-009>011-018-025>026-301900-
   North Central Minnesota

CITY           SKY/WX    TMP DP  RH WIND       PRES   REMARKS
BAUDETTE       LGT SNOW  35  31  85 NW18G29   30.19R FOG     WCI  24
FLAG ISLAND    CLOUDY    34  28  80 NW30G38   30.22R WCI  20
INTL FALLS     CLOUDY    37  33  85 NW8       30.13S
6HR MIN TEMP:  34; 6HR MAX TEMP:  39; 6HR PCP: TRACE;

WASKISH        PTSUNNY   37  34  87 NW9       30.18S
BIG FORK       CLOUDY    37  34  87 NW6       30.14S
LONGVILLE      CLOUDY    39  32  75 NW6       30.15R
GRAND RAPIDS   CLOUDY    37  30  75 NW14      30.13R
CRANE LAKE     CLOUDY    37  36  93 NW8       30.11S
ORR            CLOUDY    37  32  81 NW6       30.08S
COOK           CLOUDY    37  34  87 NW8       30.10S
WALKER         CLOUDY    37  31  78 NW6       30.17R
$$
MNZ012-019>021-037-301900-
   Northeast Minnesota

CITY           SKY/WX    TMP DP  RH WIND       PRES   REMARKS
DULUTH         CLOUDY    40  31  70 NW9       30.08S
6HR MIN TEMP:  36; 6HR MAX TEMP:  40;

ELY            CLOUDY    37  34  87 W7        30.06S
HIBBING        CLOUDY    40  32  73 NW14      30.11R
EVELETH        CLOUDY    36  32  87 NW6       30.10S
DULUTH HARBOR  CLOUDY    43  34  70 NW8       30.11S
TWO HARBORS    CLOUDY    43  34  70 NW5       30.05F
SILVER BAY     PTSUNNY   43  34  70 NW5       30.04S
GRAND MARAIS     N/A     46  34  62 VRB5      30.03F
G MARAIS ARPRT PTSUNNY   37  30  75 NW7       30.01S
$$
MNZ029>031-032-039>041-046>048-054>057-064-301900-
   West Central Minnesota

CITY           SKY/WX    TMP DP  RH WIND       PRES   REMARKS
FERGUS FALLS   CLOUDY    41  30  65 N15G28    30.22R
WHEATON        CLOUDY    39  37  93 N17G23    30.23R
MORRIS         MOSUNNY   43  39  87 N15G21    30.17R
ALEXANDRIA     CLOUDY    42  37  82 N12       30.17R
ELBOW LAKE     CLOUDY    42  38  86 N14       30.18R
WADENA         CLOUDY    39  34  81 N14       30.17R
GLENWOOD       MOSUNNY   43  37  81 N10       30.15R
APPLETON       PTSUNNY   45  39  81 N15       30.16R
BENSON         CLOUDY    45  39  81 N13       30.16R
ORTONVILLE     CLOUDY    43  37  81 N14       30.18R
MADISON        SUNNY     46  43  87 N20       30.17R
WILLMAR        PTSUNNY   46  39  76 N10       30.14R
$$
MNZ033>034-036-042>043-049>051-058-059-301900-
   Central Minnesota

CITY           SKY/WX    TMP DP  RH WIND       PRES   REMARKS
ST CLOUD       CLOUDY    47  36  65 N10       30.13R
6HR MIN TEMP:  39; 6HR MAX TEMP:  47;

SAUK CENTRE    CLOUDY    41  37  84 N8        30.14S
PAYNESVILLE    CLOUDY    41  35  81 NW7       30.14R
AITKIN         CLOUDY    43  36  75 NW9       30.12S
PINE RIVER     CLOUDY    39  34  81 N13       30.18S
BRAINERD       CLOUDY    39  36  89 N9        30.15R
STAPLES        CLOUDY    39  34  81 N12       30.16R
LONG PRAIRIE   CLOUDY    39  36  87 NW7       30.15R
LITTLE FALLS   DRIZZLE   41  36  81 NW5       30.14R
LITCHFIELD     CLOUDY    46  39  76 N8        30.12S
BUFFALO        CLOUDY    46  35  66 N7        30.12F
MAPLE LAKE     CLOUDY    47  39  72 N7        30.12F
$$
MNZ037-044-045-052-053-301900-
   East Central Minnesota

CITY           SKY/WX    TMP DP  RH WIND       PRES   REMARKS
PRINCETON      CLOUDY    46  36  66 N6        30.12S
MORA           CLOUDY    39  32  75 N3        30.14S
CAMBRIDGE      PTSUNNY   46  34  61 CALM      30.10S
RUSH CITY      CLOUDY    42  34  73 N6        30.12S
MOOSE LAKE     CLOUDY    41  32  70 N7G16     30.09S
HINCKLEY       CLOUDY    41  36  81 CALM      30.12S
CLOQUET        CLOUDY    41  30  65 NW13      30.09S
MCGREGOR       CLOUDY    39  34  81 NW13      30.13S
$$
MNZ071>073-080-081-089-090-097-098-301900-
   Southwest Minnesota

CITY           SKY/WX    TMP DP  RH WIND       PRES   REMARKS
MONTEVIDEO     CLOUDY    46  39  76 NE12      30.16R
GRANITE FALLS  MOSUNNY   49  40  69 N13       30.15S
CANBY          CLOUDY    44  40  86 N15       30.17R
MARSHALL       CLOUDY    48  36  61 N16       30.12S
REDWOOD FALLS  CLOUDY    49  39  68 N8        30.12R
OLIVIA         PTSUNNY   46  39  76 N8        30.12R
PIPESTONE      SUNNY     54  36  50 N13       30.10R
WINDOM         PTSUNNY   52  37  58 N17       30.09R
WORTHINGTON    PTSUNNY   54  36  50 N16G22    30.09R
JACKSON        SUNNY     55  32  41 N17       30.07S
TRACY          CLOUDY    48  40  73 N13       30.12R
SLAYTON        PTSUNNY   52  36  54 N14       30.11R
$$
MNZ065>067-074>077-082>085-091>093-301900-
   South Central Minnesota

CITY           SKY/WX    TMP DP  RH WIND       PRES   REMARKS
MANKATO        CLOUDY    46  36  66 N9        30.09R
NEW ULM        SUNNY     50  39  66 N7        30.09S
ST JAMES       PTSUNNY   54  36  50 N8        30.09S
FAIRMONT       CLOUDY    52  21  30 N13       30.07R
GLENCOE        PTSUNNY   46  38  74 N9        30.11R
FARIBAULT      CLOUDY    45  39  81 CALM      30.08F
OWATONNA       MOSUNNY   48  37  66 CALM      30.08S
WASECA         CLOUDY    46  34  61 N5        30.09S
ALBERT LEA     PTSUNNY   48  37  66 CALM      30.06F
$$
MNZ078>079-086>088-094>096-301900-
   Southeast Minnesota

CITY           SKY/WX    TMP DP  RH WIND       PRES   REMARKS
ROCHESTER      CLOUDY    46  37  71 CALM      30.08S
6HR MIN TEMP:  36; 6HR MAX TEMP:  46;

RED WING       CLOUDY    46  36  66 CALM      30.08F
STANTON        LGT RAIN  45  39  77 CALM      30.08S
DODGE CENTER   CLOUDY    46  37  71 CALM      30.07S
WINONA         MIX PCPN  43  36  75 CALM      30.09S
AUSTIN         CLOUDY    46  37  71 CALM      30.07S
PRESTON        CLOUDY    43  35  74 CALM      30.08S
$$
ABBREVIATIONS USED IN REMARKS
   TC - TEMPERATURES IN CELSIUS
  WCI - WIND CHILL INDEX
   HX - HEAT INDEX
  VSB - VISIBILITY
$$



USA.gov is the U.S. government's official web portal to all federal, state and local government web resources and services.